Regional Weather Roundup
Issued by NWS Charleston, SC

Current Version | Previous Version | Graphics & Text | Print | Product List | Glossary On
Versions: 1 2 3 4 5 6 7 8 9 10 11 12 13 14 15 16 17 18 19 20 21 22 23 24 25 26 27 28 29 30 31 32 33 34 35 36 37 38 39 40 41 42 43 44 45 46 47 48 49 50
000
ASUS42 KCHS 210125
RWRCHS

REGIONAL WEATHER ROUNDUP
NATIONAL WEATHER SERVICE CHARLESTON SC
900 PM EDT SUN APR 20 2014

NOTE: "FAIR" INDICATES FEW OR NO CLOUDS BELOW 12,000 FEET WITH NO
SIGNIFICANT WEATHER AND/OR OBSTRUCTIONS TO VISIBILITY.

NOT ALL STATIONS ARE QUALITY CONTROLLED BY THE NATIONAL
WEATHER SERVICE. USE DATA WITH CAUTION...ESPECIALLY
DEWPOINT OBSERVATIONS.

SCZ027-030-031-034>040-042>050-210200-
...SOUTH CAROLINA...

CITY           SKY/WX    TMP DP  RH WIND       PRES   REMARKS
N CHARLESTON   CLOUDY    64  51  62 N12       30.10R
WATERFRONT PRK   N/A     63 N/A N/A E14         N/A
FORT JOHNSON     N/A     63  54  72 N12       30.14R
MOUNT PLEASANT CLOUDY   N/A N/A N/A N8        30.09R
JOHNS ISLAND   MOCLDY    64  55  72 N3        30.10R
PINOPOLIS        N/A     64  55  72 VRB12     30.04R
MONCKS CORNER  FAIR      64  57  77 N6        30.11R
SUMMERVILLE    NOT AVBL
BEAUFORT MCAS  CLOUDY    64  50  60 NE8       30.12R
BEAUFORT ARPT  CLOUDY    63  52  67 N9        30.11S
HILTON HEAD IS CLOUDY    64  54  68 N10       30.13S
GEORGETOWN     NOT AVBL
WALTERBORO     CLOUDY    63  50  63 N3        30.14R
ORANGEBURG     CLOUDY    64  44  48 N6        30.14S
BARNWELL       CLOUDY    64  46  52 N5        30.16R
AIKEN          CLOUDY    63  46  55 CALM      30.19S
MANNING        CLOUDY    64  36  34 N8        30.14R
KINGSTREE      NOT AVBL
COLUMBIA       CLOUDY    66  40  38 NE6       30.16R
SUMTER         CLOUDY    63  46  53 N8        30.13S
FLORENCE       CLOUDY    63  49  60 NE9       30.15R
MYRTLE BEACH   CLOUDY    61  50  67 N20G26    30.09R
N MYRTLE BEACH CLOUDY    59  49  69 N16G26    30.09R

$$

GAZ063-065-086>088-099>101-113>116-118-119-134-136>141-150-210200-
...GEORGIA...

CITY           SKY/WX    TMP DP  RH WIND       PRES   REMARKS
SAVANNAH ARPT  PTCLDY    62  50  64 N7        30.12S
HUNTER AAF     CLOUDY    64  52  63 VRB5      30.10R
FORT STEWART   CLOUDY    64  55  71 NE7       30.11R
STATESBORO     NOT AVBL
SYLVANIA       CLOUDY    64  52  63 NE3       30.15R
CLAXTON        MOCLDY    64  55  72 NE3       30.14R
THOMSON        CLEAR     61  48  63 E5        30.20S
AUGUSTA-BUSH   CLOUDY    66  42  41 NE8       30.16R
AUGUSTA-DANIEL CLOUDY    67  42  40 NE9       30.17R
SWAINSBORO     CLOUDY    63  52  67 E3        30.15R
VIDALIA        CLOUDY    64  52  63 NE5       30.14R
ALMA           CLOUDY    61  57  87 CALM      30.11R
WAYCROSS       NOT AVBL
JESUP          CLOUDY    63  57  82 NE6       30.12R
BRUNSWICK      CLOUDY    61  59  94 CALM      30.12R
SAINT SIMONS   CLOUDY    61  57  87 NW5       30.11R

$$

SCZ027-028-034-036>038-045-046-048>050-GAZ119-141-210200-
...LAKE AND SUPPLEMENTAL COASTAL OBSERVATIONS...

STATION/POSITION TIME  TEMP    WIND        PRES    WAVE   SWELL
                       AIR SEA DIR/SP/G            HT/PER HT/PER/DIR
                 (UTC) (F)     (DEG/KT/KT) (MB)    (FT/S) (FT/S/D)
UPR LAKE MARION  NOT AVBL
WINYAH BAY       0100   61      10/ 10     1018.0S
LAKE MURRAY      0000   63        CALM     1021.0R
ACE BASIN NERRS  0100   63     350/  3     1019.0S
FORT PULASKI     0100   63 58  340/  7/  8 1020.0S
SAPELO ISLAND    0000   63      50/  1     1019.0S

$$

ANZ835-935-AMZ111-154-330-350-352-354-374-450-454-472-210200-
...C-MAN AND BUOY OBSERVATIONS...

STATION/POSITION TIME  TEMP    WIND        PRES    WAVE   SWELL
                       AIR SEA DIR/SP/G            HT/PER HT/PER/DIR
                 (UTC) (F)     (DEG/KT/KT) (MB)    (FT/S) (FT/S/D)
FOLLY BEACH CMAN 0100   62     350/  8/ 10 1019.4R
BUOY 41004       NOT AVBL
BUOY 41008       0100   62 63   10/ 12/ 16 1019.0R   5/ 7   3/ 80/ 7
5E ST. MARYS GA  0100      63                N/A     4/10   2/ 80/11
FRYING PAN BUOY  0100   59 68   20/ 33/ 43 1015.0R  13/ 8
BUOY 41025       0100   60 76   10/ 31/ 39 1014.9F  16/12  10/ 60/12
CAPE LOOKOUT NC  0100   54      10/ 25/ 32 1017.7R
BUOY 41002       NOT AVBL
BUOY 41010       0100   72 76  340/ 21/ 25 1014.1S   8/10   5/ 20/10
BUOY 41012       NOT AVBL
ST AUGUSTINE FL  0100   61     350/ 11/ 13 1019.9R
CAPERS NEARSHORE NOT AVBL
FRIPP NEARSHORE  0000   63      10/ 12/ 14   N/A


$$


USA.gov is the U.S. government's official web portal to all federal, state and local government web resources and services.